www.pogodaiklimat.ru

Погода и климат >> Архив погоды >> Мальдивы >> Кадхдху


ПОГОДА на Кадхдху

  • Прогноз погоды на Кадхдху
  • Монитор погоды на Кадхдху

АРХИВ ПОГОДЫ на Кадхдху

Время (UTC), дата Ветер
(напр.,м/с)
 
Видим.   Явления Облачность Т
(С)
Тd
(С)
f
(%)
Тe
(С)
Тes
(С)
Комфортность P
(гПа)
Po
(гПа)
Тmin
(С)
Tmax
(С)
R
(мм)
R24
(мм)
S
(см)
12 11.06 Ю 2 14 км 9/3 540 м
[Cb cap Ac trans Ci sp]
+30.0 +25.2 76 +44 +44 опасность
перегрева
1008.1 1007.9 +31.5
15 11.06 нст 1 14 км 9/3 540 м
[Cu med, cong Ac lent Ci sp]
+28.8 +25.1 80 +42 +42 опасность
перегрева
1010.4 1010.2
18 11.06 Ю 3 9000 м слаб. ливневой дождь 9/3 500 м
[Cu med, cong Ac trans Ci sp]
+25.4 +24.1 93 +35 +35 очень
душно
1011.3 1011.1 15
21 11.06 штиль 0 10 км {ливн. осадки} 8/1 540 м
[Cu med, cong Ac trans Ci sp]
+25.7 +25.3 98 +37 +37 очень
душно
1009.5 1009.3
00 12.06 нст 1 12 км {ливн. осадки} 8/3 540 м
[Cu med, cong Ac trans Ci sp]
+26.3 +25.4 95 +38 +38 очень
душно
1009.0 1008.8 15
03 12.06 нст 1 14 км 8/1 570 м
[Cu med, cong Ac trans Ci sp]
+29.6 +25.5 79 +44 +47 опасность
перегрева
1011.1 1010.9 +25.2
06 12.06 ЮВ 2 18 км 6/3 540 м
[Cu med, cong Ac lent Ci sp]
+31.1 +25.6 73 +46 +56 опасность
перегрева
1010.9 1010.7
09 12.06 ЮВ 1 18 км 5/3 540 м
[Cu med, cong Ac lent Ci sp]
+31.0 +26.1 75 +46 +57 опасность
перегрева
1008.5 1008.3
12 12.06 Ю 2 18 км 8/3 540 м
[Cu med, cong Ac lent Ci sp]
+30.4 +25.5 75 +45 +45 опасность
перегрева
1008.3 1008.1 +31.9
15 12.06 нст 1 18 км 9/1 540 м
[Cu med, cong Ac lent Ci sp]
+28.8 +25.5 82 +42 +42 опасность
перегрева
1010.1 1009.9
18 12.06 штиль 0 18 км 8/3 540 м
[Cu med, cong Ac lent Ci sp]
+27.6 +26.1 92 +42 +42 опасность
перегрева
1011.4 1011.2
21 12.06 штиль 0 18 км 9/3 540 м
[Cu med, cong Ac As]
+27.2 +26.1 94 +41 +41 опасность
перегрева
1009.9 1009.7
00 13.06 18 км 9/3 540 м
[Cu med, cong Ac trans Ci sp]
+26.9 +25.2 90 1009.7 1009.5
03 13.06 Ю 1 15 км 9/3 540 м
[Cu med, cong Ac lent Cs]
+29.2 +25.8 82 +44 +46 опасность
перегрева
1011.2 1011.0 +26.2
06 13.06 Ю 2 16 км 9/3 540 м
[Cu med, cong Ac lent Ci sp]
+30.6 +25.7 75 +45 +53 опасность
перегрева
1011.2 1011.0
09 13.06 Ю 1 16 км 9/3 540 м
[Cu med, cong Ac trans Ci sp]
+31.0 +26.0 75 +46 +53 опасность
перегрева
1009.3 1009.1
12 13.06 Ю 2 16 км 8/3 540 м
[Cu med, cong Ac trans Ci sp]
+30.4 +24.9 72 +43 +44 опасность
перегрева
1009.0 1008.8 +31.9
15 13.06 нст 1 15 км 6/3 540 м
[Cu med, cong Ac trans Ci sp]
+28.8 +25.1 80 +42 +42 опасность
перегрева
1010.8 1010.6
18 13.06 Ю 2 15 км 9/3 540 м
[Cu med, cong Ac trans Ci sp]
+28.6 +25.6 84 +42 +42 опасность
перегрева
1011.4 1011.2
21 13.06 нст 1 15 км 9/3 540 м
[Cu med, cong Ac trans Ci sp]
+28.4 +25.1 82 +41 +41 опасность
перегрева
1009.8 1009.6
00 14.06 Ю 2 15 км 8/3 540 м
[Cu med, cong Ac trans Ci sp]
+28.4 +25.9 86 +42 +42 опасность
перегрева
1008.7 1008.5
03 14.06 В 1 15 км 9/3 540 м
[Cu med, cong Ac lent Ci sp]
+29.9 +25.8 79 +45 +47 опасность
перегрева
1010.5 1010.3 +27.9
06 14.06 В 3 15 км 9/3 540 м
[Cu med, cong Ac lent Ci sp]
+31.4 +26.1 74 +47 +54 опасность
перегрева
1010.6 1010.4
09 14.06 В 2 15 км 8/3 540 м
[Cu med, cong Ac lent Ci sp]
+31.0 +26.1 75 +46 +54 опасность
перегрева
1008.7 1008.5
12 14.06 В 2 15 км 9/3 540 м
[Cu med, cong Ac trans Ci sp]
+30.5 +25.6 75 +45 +46 опасность
перегрева
1008.6 1008.4 +32.1
15 14.06 нст 1 15 км 5/3 540 м
[Cu med, cong Ac lent Ci sp]
+29.0 +25.5 81 +43 +43 опасность
перегрева
1010.8 1010.6
18 14.06 нст 1 15 км 9/1 540 м
[Cu med, cong Ac As Ci sp]
+29.2 +25.7 81 +43 +43 опасность
перегрева
1011.7 1011.5
21 14.06 нст 1 15 км 6/3 540 м
[Cu med, cong Ac trans Ci sp]
+28.6 +25.6 84 +42 +42 опасность
перегрева
1009.9 1009.7
00 15.06 нст 1 15 км 5/1 540 м
[Cu med, cong Ac trans Ci sp]
+28.5 +25.7 85 +42 +42 опасность
перегрева
1009.3 1009.1
03 15.06 нст 1 15 км 9/3 540 м
[Cu med, cong Ac lent Cs]
+29.9 +26.0 80 +45 +47 опасность
перегрева
1011.0 1010.8 +28.3
06 15.06 С 3 15 км 9/3 540 м
[Cb cap Ac trans Ci sp]
+30.4 +25.6 76 +45 +51 опасность
перегрева
1011.1 1010.9
09 15.06 С 1 15 км 9/3 540 м
[Cu med, cong Ac trans Ci sp]
+30.8 +25.6 74 +45 +52 опасность
перегрева
1008.9 1008.7
12 15.06 нст 1 15 км 9/3 540 м
[Cu med, cong Ac trans Cs]
+30.2 +26.0 78 +45 +46 опасность
перегрева
1009.1 1008.9 +31.8
15 15.06 штиль 0 15 км 9/3 540 м
[Cu med, cong Ac lent Cs]
+28.8 +25.5 82 +42 +42 опасность
перегрева
1010.8 1010.6
18 15.06 штиль 0 15 км 9/1 540 м
[Cu med, cong Ac lent Cs]
+27.1 +25.5 91 +40 +40 очень
душно
1012.0 1011.8
21 15.06 нст 1 15 км 8/3 540 м
[Cu med, cong Ac lent Ci sp]
+26.9 +25.9 94 +40 +40 очень
душно
1009.9 1009.7
00 16.06 нст 1 15 км 8/3 540 м
[Cu med, cong Ac trans Ci sp]
+26.6 +25.6 94 +39 +39 очень
душно
1009.7 1009.5
03 16.06 нст 1 12 км 9/3 540 м
[Cu med, cong Ac lent Cs]
+29.2 +26.0 83 +44 +46 опасность
перегрева
1011.8 1011.6 +26.4
06 16.06 В 2 12 км 9/3 540 м
[Cu med, cong Ac lent Cs]
+31.3 +26.1 74 +47 +55 опасность
перегрева
1012.0 1011.8
09 16.06 нст 1 12 км 9/3 540 м
[Cu med, cong Ac trans Cs]
+30.4 +25.8 76 +45 +52 опасность
перегрева
1010.2 1010.0
12 16.06 нст 1 15 км 9/3 540 м
[Cu med, cong Ac trans Cs]
+30.0 +25.5 77 +44 +45 опасность
перегрева
1009.1 1008.9 +32.0
15 16.06 штиль 0 15 км 9/3 540 м
[Cu med, cong Ac trans Cs]
+28.3 +25.9 87 +42 +42 опасность
перегрева
1011.4 1011.2
18 16.06 штиль 0 15 км 9/3 540 м
[Cu med, cong Ac trans Cs]
+27.1 +25.4 90 +39 +39 очень
душно
1012.0 1011.8
21 16.06 штиль 0 15 км 6/3 540 м
[Cu med, cong Ac trans Ci sp]
+26.4 +25.1 93 +38 +38 очень
душно
1010.8 1010.6
00 17.06 штиль 0 12 км 8/1 540 м
[Cu med, cong Ac trans Ci sp]
+26.0 +25.1 95 +37 +37 очень
душно
1010.8 1010.6
03 17.06 нст 1 12 км 9/1 540 м
[Cu med, cong Ac lent Ci sp]
+29.8 +25.9 80 +45 +47 опасность
перегрева
1012.7 1012.5 +25.6
06 17.06 В 2 14 км 8/1 570 м
[Cu med, cong Ac lent Ci sp]
+31.2 +25.4 71 +45 +56 опасность
перегрева
1012.6 1012.4
09 17.06 нст 1 14 км 9/3 540 м
[Cu med, cong Ac lent Ci sp]
+31.6 +25.9 72 +47 +54 опасность
перегрева
1010.8 1010.6
12 17.06 нст 1 14 км 9/3 540 м
[Cu med, cong Ac lent Ci sp]
+30.9 +25.4 73 +45 +46 опасность
перегрева
1010.0 1009.8 +33.0
15 17.06 С 1 14 км 9/3 540 м
[Cu med, cong Ac trans Cs]
+29.3 +26.1 83 +44 +44 опасность
перегрева
1011.6 1011.4
18 17.06 С 3 14 км 9/3 540 м
[Cu med, cong Ac As Ci sp]
+29.0 +25.0 79 +42 +42 опасность
перегрева
1012.1 1011.9
21 17.06 С 1 14 км зарница 9/4 540 м
[Cb cap Ac trans Cs]
+28.6 +25.5 83 +42 +42 опасность
перегрева
1010.5 1010.3
00 18.06 нст 1 12 км в посл. час ливневой дождь 9/4 500 м
[Cb cap Ac lent Cs]
+27.7 +26.6 94 +43 +43 опасность
перегрева
1010.1 1009.9 1
03 18.06 нст 1 13 км 9/3 540 м
[Cu med, cong Ac trans Cs]
+30.2 +26.6 81 +47 +49 опасность
перегрева
1011.9 1011.7 +27.1
06 18.06 З 5 10 км слаб. ливневой дождь 9/4 500 м
[Cb cap Ac As Ci sp]
+27.5 +24.5 84 +39 +42 очень
душно
1012.4 1012.2 0.1
09 18.06 СЗ 4 10 км слаб. ливневой дождь 9/5 500 м
[Cb cap Ac As]
+27.8 +26.0 90 +42 +44 опасность
перегрева
1010.3 1010.1

 

Местоположение метеостанции Кадхдху (Мальдивы): широта 1.88 долгота 73.50 высота над уровнем моря 2 м.

В архиве по умолчанию представлена погода на Кадхдху за последнюю неделю. Архивные данные за месяц целиком и за предыдущие месяцы, начиная с января 2011 года, Вы можете получить, выбрав интересующий диапазон дат из раскрывающегося списка и нажав кнопку "Ввод!".


*Определитесь, кто Вы:
робот инопланетянин человек

Внимание! Время в таблицах - всемирное. Для получения местного времени необходимо прибавить поправку, которая равна 5 ч.

Смотрите также архив погоды в соседних городах и на ближайших метеорологических станциях:

Погода на Каадедхдху (Мальдивы) (166 км)
Погода в Мале (Мальдивы) (258 км)
Погода в Гане (Мальдивы) (287 км)
Погода на Ханимааду (Мальдивы) (541 км)
Погода на Миникое (Лакшадвип, Индия) (715 км)
Погода в Каньякумари (Тамилнад, Индия) (820 км)
Погода в Тривандрам аэропорту (Керала, Индия) (827 км)
Погода в Тривандраме (Керала, Индия) (828 км)
Погода в Галле (Шри Ланка) (877 км)
Погода в Пуналере (Керала, Индия) (878 км)

Пояснения к столбцам:

Ветер - указаны скорость ветра в м/с - средняя за 10 мин, порывы в срок и между сроками (в фигурных скобках) и направление, откуда дует ветер: С - северный, СВ - северо-восточный, В - восточный, ЮВ - юго-восточный, Ю - южный, ЮЗ - юго-западный, З - западный, СЗ - северо-западный.
Видимость - горизонтальная дальность видимости в метрах или километрах. При видимости от 1 до 10 км при отсутствии осадков обычно наблюдается дымка, при ухудшении видимости до 1 км и менее - туман. В сухую погоду видимость может ухудшаться дымом, пылью или мглою.
Явления - указаны атмосферные явления, наблюдавшиеся в срок или в последний час перед сроком; фигурными скобками обозначены явления, наблюдавшиеся между сроками (за 1-3 часа до срока); квадратными скобками обозначены град или гололедные отложения с указанием их диаметра в мм.
Облачность - указаны через наклонную черту общая и нижняя облачность в баллах и высота нижней границы облаков в метрах; квадратными скобками обозначены формы облаков: Ci - перистые, Cs - перисто-слоистые, Cc - перисто-кучевые, Ac - высококучевые, As - высокослоистые, Sc - слоисто-кучевые, Ns - слоисто-дождевые, Cu - кучевые, Cb - кучево-дождевые. Подробнее классификацию облаков см. в Атласе облаков (PDF).
T - Температура воздуха - температура, измеренная на высоте 2 м над землей.
Td - Температура точки росы - температура, при понижении до которой содержащийся в воздухе водяной пар достигнет насыщения.
f - Относительная влажность воздуха - влажноcть воздуха, измеренная на высоте 2 м над землей.
Te - Эффективная температура - температура, которую ощущает одетый по сезону человек в тени. Характеристика душности погоды. При расчете учитывается влияние влажности воздуха и скорости ветра на теплоощущения человека.
Tes - Эффективная температура на солнце - температура, которую ощущает человек, с поправкой на солнечный нагрев. Характеристика знойности погоды. Зависит от высоты солнца над горизонтом, облачности и скорости ветра. Ночью, в пасмурную погоду, а также при ветре 12 м/с и более поправка равна нулю.
P - Атмосферное давление - приведенное к уровню моря атмосферное давление.
Po - Атмосферное давление - измеренное на уровне метеостанции атмосферное давление.
Tmin - Минимальная температура - минимум температуры воздуха на высоте 2 м над землей.
Tmax - Максимальная температура - максимум температуры воздуха на высоте 2 м над землей.
R - Количество осадков - Количество выпавших осадков за период времени, мм. При наведении курсора мыши на число - период времени, за который выпало указанное количество осадков.
R24 - Количество осадков - Количество выпавших осадков за 24 часа, мм.
S - Снежный покров - Высота снежного покрова, см. При наведении курсора мыши на число - состояние снежного покрова и степень покрытия местности в баллах.